Preview of NWS' New Version of Forecast
This preview is not operational and should not be used for support decisions.

Regional Weather Roundup (RWR)

Issued by National Weather Service (NWS)

                            
000
ASUS43 KDMX 242101
RWRIA 

WEATHER ROUNDUP FOR IOWA
NATIONAL WEATHER SERVICE DES MOINES IA
400 PM CDT MON JUN 24 2019

NOTE: "FAIR" INDICATES FEW OR NO CLOUDS BELOW 12,000 FEET WITH NO
SIGNIFICANT WEATHER AND/OR OBSTRUCTIONS TO VISIBILITY.

* - THESE STATIONS ARE NOT NWS STATIONS...THUS NOT UNDER NWS
QUALITY CONTROL.  THEY ALSO DO NOT REPORT WEATHER SUCH 
AS PRECIPITATION OR FOG.  

IAZ001>003-012>014-020>022-031>034-043>046-242200-
   NORTHWEST IOWA
  
CITY           SKY/WX    TMP DP  RH WIND       PRES   REMARKS
CARROLL *      SUNNY     77  57  50 W14G23    29.72F                  
CHEROKEE *     MOSUNNY   79  53  40 NW16G23   29.70S                  
DENISON *      SUNNY     79  57  47 W13       29.75S HX  80           
LE MARS *      MOSUNNY   79  55  44 W9        29.71S                  
SHELDON *      RAIN      72  64  78 W18G25    29.70R                  
SIOUX CITY     PTSUNNY   81  57  43 W14G21    29.71F HX  81           
SPENCER        SUNNY     73  56  54 W13       29.70S                  
STORM LAKE *     N/A     77  54  44 W20G26    29.68F                  
$$
 
IAZ055>058-069>071-079>083-090>094-242200-
   SOUTHWEST IOWA
  
CITY           SKY/WX    TMP DP  RH WIND       PRES   REMARKS
ATLANTIC *     MOSUNNY   77  57  50 SW15      29.76S                  
AUDUBON *      SUNNY     79  57  47 CALM      29.76F HX  80           
CLARINDA *     PTSUNNY   79  57  47 W17       29.80F HX  80           
COUNCIL BLFS * MOSUNNY   79  54  41 W6G16     29.75F                  
CRESTON *      MOSUNNY   75  55  50 W15G23    29.78S                  
HARLAN  *      MOSUNNY   77  59  53 W10G17    29.76S                  
LAMONI         PTSUNNY   76  56  49 W15G26    29.79S                  
RED OAK *      MOSUNNY   79  55  44 W12G18    29.78S                  
SHENANDOAH *   MOSUNNY   79  59  50 W12G18    29.78S HX  80           
$$
 
IAZ047>049-059>061-072>074-084-242200-
   CENTRAL IOWA
  
CITY           SKY/WX    TMP DP  RH WIND       PRES   REMARKS
AMES           SUNNY     77  57  50 W15G26    29.72S                  
ANKENY *       SUNNY     77  57  50 W15G22    29.73F                  
BOONE *        MOSUNNY   75  59  57 W13G20    29.71F                  
CHARITON *     MOSUNNY   75  57  53 W14G21    29.76S                  
DES MOINES     MOSUNNY   77  55  46 W16       29.72F                  
GRINNELL*      SUNNY     74  57  55 W16G22    29.73S                  
KNOXVILLE *    SUNNY     75  57  53 W14G23    29.74S                  
MARSHALLTOWN   SUNNY     74  58  57 W21G30    29.69F                  
NEWTON *       MOSUNNY   73  57  56 W14G23    29.72S                  
PELLA *          N/A     75  58  54 W12       29.74F                  
$$
 
IAZ004>006-015-016-023>025-035-036-242200-
   NORTH CENTRAL IOWA
  
CITY           SKY/WX    TMP DP  RH WIND       PRES   REMARKS
ALGONA *       MOSUNNY   75  59  57 NW16G24   29.69S                  
CLARION *      MOSUNNY   73  57  56 W20G26    29.70S                  
ESTHERVILLE    SUNNY     73  60  63 NW15      29.68F                  
FORT DODGE *   SUNNY     75  57  53 W17G23    29.70F                  
MASON CITY     MOSUNNY   74  55  51 W24G32    29.68S                  
FOREST CITY *  PTSUNNY   73  54  49 W14G22    29.68R                  
IOWA FALLS *   FAIR      75  58  54 W22G28    29.71F                  
$$

IAZ007>011-017>019-026>030-037>042-050>054-066-242200-
   NORTHEAST IOWA
  
CITY           SKY/WX    TMP DP  RH WIND       PRES   REMARKS
CEDAR RAPIDS   FAIR      73  58  59 W21G35    29.67S                  
CHARLES CITY * LGT RAIN  70  59  68 W14G20    29.65S                  
CLINTON *      TSTM      63  60  90 W23       29.66R                  
DECORAH *        N/A     72  59  64 W13G20    29.61S                  
DUBUQUE        FAIR      70  61  73 W14G26    29.63S                  
MONTICELLO *   LGT RAIN  68  63  83 W13G18    29.65F                  
OELWEIN *      FAIR      70  63  78 W20       29.67R                  
WATERLOO       FAIR      77  59  53 W15G24    29.65F                  
$$
 
IAZ064-065-067-068-078-242200-
   EAST CENTRAL IOWA
  
CITY           SKY/WX    TMP DP  RH WIND       PRES   REMARKS
DAVENPORT      CLOUDY    68  62  81 NW13      29.71R THUNDER          
IOWA CITY      PTSUNNY   76  58  53 W21G30    29.69R                  
MT. PLEASANT * MOSUNNY   75  61  60 W18G24    29.72S                  
MUSCATINE *    FAIR      75  61  60 W18       29.69R                  
QUAD CITIES    PTSUNNY   74  66  76 W17G24    29.67R                  
$$
 
IAZ062-063-075>077-085>089-095>099-242200-
   SOUTHEAST IOWA
  
CITY           SKY/WX    TMP DP  RH WIND       PRES   REMARKS
BURLINGTON     MOSUNNY   75  61  61 W13G28    29.71R                  
FAIRFIELD *    MOSUNNY   73  57  56 W20G26    29.73S                  
FORT MADISON * MOSUNNY   75  63  64 W15G24    29.74R                  
KEOKUK *       PTSUNNY   75  61  60 W14G22    29.73S                  
OSKALOOSA *    FAIR      75  58  55 W20G25    29.74R                  
OTTUMWA        MOSUNNY   75  57  53 W18G28    29.74R                  
WASHINGTON *   MOSUNNY   75  63  64 W20G28    29.70S                  
$$

ABBREVIATIONS USED IN REMARKS
   TC - TEMPERATURES IN CELSIUS
  WCI - WIND CHILL INDEX
   HX - HEAT INDEX
  VSB - VISIBILITY  
$$